User: anonymous   Login
Location: Homewood
(41.1836°S, 175.9581°E)
Time: 13:41:25
(UTC+00:00)
Language:

Cosmos 1933 Rocket - Orbit

View from above orbital plane
View from above orbital plane
View from above satellite
View from above satellite

Ground track
Ground track

The orbit data is extracted from the following two-line orbital elements,

1 18959U 88020B   24175.69256231  .00000538  00000-0  60906-4 0  9994
2 18959  82.5371  34.5058 0015524 324.3678  35.6499 14.84552655939580
Epoch (UTC): 23 June 2024 16:37:17
Eccentricity: 0.0015524
inclination: 82.5371°
perigee height: 604 km
apogee height: 626 km
right ascension of ascending node: 34.5058°
argument of perigee: 324.3678°
revolutions per day: 14.84552655
mean anomaly at epoch: 35.6499°
orbit number at epoch: 93958

The dashed part of the orbit path shows where the satellite is in the earth's shadow,  

DLR